Regional Weather Roundup
Issued by NWS Sterling, VA

Home | Current Version | Previous Version | Graphics & Text | Print | Product List | Glossary On
Versions: 1 2 3 4 5 6 7 8 9 10 11 12 13 14 15 16 17 18 19 20 21 22 23 24 25 26 27 28 29 30 31 32 33 34 35 36 37 38 39 40 41 42 43 44 45 46 47 48 49 50
000
ASUS41 KLWX 240710
RWRLWX

REGIONAL WEATHER ROUNDUP
NATIONAL WEATHER SERVICE BALTIMORE MD/WASHINGTON DC
300 AM EDT SUN MAY 24 2015

Note: "FAIR" indicates few or no clouds below 12,000 feet
with no significant weather and/or obstructions to visibility.
 TC=TEMPERATURE CELSIUS

 * =Non NWS site. Station does not report precipitation (e.g. rain,
    snow, etc.), thunder, or fog.

DCZ001-MDZ009-015-VAZ040>042-051-053>054-240800-
WASHINGTON METRO

CITY           SKY/WX    TMP DP  RH WIND       PRES   REMARKS
WASHINGTON NAT PTCLDY    60  45  57 S7        30.38F
DULLES         CLEAR     49  46  90 CALM      30.38S
ANDREWS AFB    CLEAR     54  41  61 S5        30.37S
FT BELVOIR     CLEAR     51  48  90 N1        30.38S
QUANTICO       CLEAR     59  49  69 W5        30.39S
COLLEGE PARK*  CLEAR     50  46  87 CALM      30.38S
LEESBURG*      CLEAR     54  50  87 CALM      30.39S
MANASSAS*        N/A    N/A N/A N/A MISG        N/A
GAITHERSBURG*  CLEAR     48  43  81 CALM      30.42S

$$

MDZ006>007-011-014-240800-
BALTIMORE METRO

CITY           SKY/WX    TMP DP  RH WIND       PRES   REMARKS
BWI AIRPORT    PTCLDY    50  44  80 CALM      30.38S
MD SCIENCE CTR   N/A     58  43  57 MISG      30.39S
MARTIN STATE   CLEAR     52  50  93 CALM      30.40R
ANNAPOLIS      CLEAR     56  46  69 CALM      30.38R
FORT MEADE*    CLEAR     45  43  93 CALM      30.40S

$$

MDZ012-015-019>023-240800-
MARYLAND EASTERN SHORE

CITY           SKY/WX    TMP DP  RH WIND       PRES   REMARKS
OCEAN CITY     CLEAR     49  46  90 CALM      30.40F
SALISBURY      CLEAR     45  43  93 E5        30.40S
BAY BRIDGE AP*   N/A    N/A N/A N/A S3        30.38S
EASTON*        CLEAR     55  55 100 S3        30.42S

$$

MDZ017>025-240800-
SOUTHERN MARYLAND

CITY           SKY/WX    TMP DP  RH WIND       PRES   REMARKS
PATUXENT RIVER CLEAR     58  51  78 S5        30.39R
ST INIGOES     CLEAR     61  51  70 S8        30.38S
LEONARDTOWN*   CLEAR     54  48  82 CALM      30.40S

$$

MDZ003>005-240800-
NORTH CENTRAL MARYLAND

CITY           SKY/WX    TMP DP  RH WIND       PRES   REMARKS
FREDERICK*     CLEAR     46  46 100 CALM      30.41R
HAGERSTOWN APT CLEAR     57  41  55 CALM      30.36S
WESTMINSTER*   PTCLDY    55  41  58 CALM      30.38S

$$

MDZ501>502-240800-
WESTERN MARYLAND

CITY           SKY/WX    TMP DP  RH WIND       PRES   REMARKS
OAKLAND*       CLEAR     52  36  54 S6        30.39F
CUMBERLAND*    CLEAR     46  41  81 CALM      30.41S

$$

VAZ025>031-240800-
SHENANDOAH VALLEY

CITY           SKY/WX    TMP DP  RH WIND       PRES   REMARKS
WINCHESTER*    CLEAR     50  43  76 CALM      30.35F
FRONT ROYAL*   FAIR      50  46  87 CALM      30.36R
LURAY*         FAIR      52  52 100 CALM      30.37S
NEW MARKET*    FAIR      49  47  95 CALM      30.37R
STAUNTON*      CLEAR     49  46  90 CALM      30.39S
WAYNESBORO*    FAIR      51  48  89 CALM      30.38S

$$

WVZ021-048>050-054>055-240800-
EASTERN WEST VIRGINIA PANHANDLE

CITY           SKY/WX    TMP DP  RH WIND       PRES   REMARKS
MARTINSBURG    CLEAR     49  45  86 CALM      30.37R
PETERSBURG*    CLEAR     45  41  88 CALM      30.38F

$$

VAZ036>039-050-240800-
CENTRAL FOOTHILLS

CITY           SKY/WX    TMP DP  RH WIND       PRES   REMARKS
CHARLOTTESVILL CLEAR     52  49  89 CALM      30.37S
CULPEPER*      CLEAR     47  47  97 CALM      30.39S
ORANGE*        CLEAR     55  50  82 CALM      30.39S
GORDONSVILLE*  FAIR      50  48  95 CALM      30.38R
WARRENTON*     CLOUDY    52  51  95 CALM      30.38R

$$

VAZ055>057-240800-
NORTH AND CENTRAL PIEDMONT

CITY           SKY/WX    TMP DP  RH WIND       PRES   REMARKS
FREDERICKSBRG* PTCLDY    57  51  80 CALM      30.37S
STAFFORD*      CLEAR     48  46  93 CALM      30.42S

$$

NCZ024-NYZ072-PAZ021-071-VAZ022-071-240800-
OTHER REGIONAL OBSERVATIONS

CITY           SKY/WX    TMP DP  RH WIND       PRES   REMARKS
NEW YORK CITY  CLEAR     58  35  42 VRB6      30.38R
PHILADELPHIA   PTCLDY    55  46  71 S8        30.39R
PITTSBURGH     CLEAR     51  42  71 CALM      30.32S
ROANOKE        CLEAR     53  50  89 CALM      30.38F
RICHMOND       PTCLDY    57  48  72 CALM      30.39S
RALEIGH        PTCLDY    62  54  74 S6        30.39S

$$

ANZ530>537-240800-
MARINE OBSERVATIONS

STATION/POSITION TIME  TEMP    WIND        PRES
                       AIR SEA DIR/SP/G
                 (UTC) (F)     (DEG/KT/KT) (MB)
THOMAS PT LIGHT  0700   63 65  190/ 12/ 13 1029.4R
BALT KEY BRIDGE  0600   59     250/  3/  4   N/A
LEWISETTA        0600   60 68                N/A
SOLOMONS ISLAND  0600      68                N/A
PINEY POINT      0600          180/  9/ 10   N/A

$$



USA.gov is the U.S. government's official web portal to all federal, state and local government web resources and services.